Location: Bowman Observatory
(41.0326°N, 73.6210°W)
Time: 06:11:24
(UTC-04:00)

Cosmos 2297 - Visible Passes

Search period start: 29 July 2016 00:00
Search period end: 08 August 2016 00:00
Orbit: 835 x 860 km, 71.0° (Epoch: 28 July)

Date Brightness Start Highest point End Pass type
(mag) Time Alt. Az. Time Alt. Az. Time Alt. Az.
29 Jul 3.7 21:53:14 10° SSW 21:58:55 88° ESE 22:04:42 10° NNE visible
29 Jul 6.4 23:40:29 10° W 23:43:54 16° NW 23:47:21 10° N visible
30 Jul 3.7 21:39:54 10° SSW 21:45:36 87° ESE 21:51:23 10° NNE visible
30 Jul 6.4 23:27:04 10° W 23:30:34 16° NW 23:34:04 10° N visible
31 Jul 3.7 21:26:35 10° SSW 21:32:17 85° ESE 21:38:03 10° NNE visible
31 Jul 6.5 23:13:40 10° W 23:17:13 17° NW 23:20:48 10° N visible
01 Aug 3.7 21:13:16 10° SSW 21:18:58 83° ESE 21:24:44 10° NNE visible
01 Aug 6.5 23:00:16 10° W 23:03:53 17° NW 23:07:32 10° N visible
02 Aug 3.7 20:59:57 10° SSW 21:05:38 82° ESE 21:11:25 10° NNE visible
02 Aug 6.5 22:46:53 10° W 22:50:32 17° NW 22:54:14 10° N visible
03 Aug 3.7 20:46:37 10° SSW 20:52:19 80° ESE 20:58:05 10° NNE visible
03 Aug 6.6 22:33:28 10° W 22:37:12 17° NW 22:40:57 10° N visible
04 Aug 3.7 20:33:18 10° SSW 20:39:00 79° ESE 20:44:46 10° NNE visible
04 Aug 6.6 22:20:04 10° W 22:23:51 18° NW 22:27:40 10° N visible
05 Aug 6.6 22:06:41 10° W 22:10:31 18° NW 22:14:23 10° N visible
06 Aug 5.6 05:15:02 10° N 05:20:20 37° ENE 05:25:34 10° SE visible
06 Aug 6.6 21:53:17 10° W 21:57:11 18° NW 22:01:06 10° N visible
07 Aug 5.6 05:01:43 10° N 05:07:00 36° ENE 05:12:13 10° SE visible
07 Aug 6.7 21:39:53 10° W 21:43:50 19° NW 21:47:49 10° N visible
